Regional Weather Roundup
Issued by NWS

Home | Current Version | Previous Version | Text Only | Print | Product List | Glossary On
Versions: 1 2 3 4 5 6 7 8 9 10 11 12 13 14 15 16 17 18 19 20 21 22 23 24 25 26 27 28 29 30 31 32 33 34 35 36 37 38 39 40 41 42 43 44 45 46 47 48 49 50
000
ASUS43 KLOT 270508
RWRIL

ILLINOIS REGIONAL WEATHER ROUNDUP
NATIONAL WEATHER SERVICE CHICAGO/ROMEOVILLE IL
1200 AM CDT FRI APR 27 2018

NOTE: "FAIR" INDICATES FEW OR NO CLOUDS BELOW 12,000 FEET WITH NO
SIGNIFICANT WEATHER AND/OR OBSTRUCTIONS TO VISIBILITY.

* THESE STATIONS ARE NOT UNDER NWS QUALITY CONTROL. THEY ALSO MAY NOT
  REPORT WEATHER SUCH AS PRECIPITATION OR FOG.

ILZ001-002-007-009-015-016-024-270600-
NORTHWEST ILLINOIS

CITY           SKY/WX    TMP DP  RH WIND       PRES   REMARKS
MOLINE         FAIR      58  41  53 W13G21    29.84R
STERLING*      FAIR      55  36  48 W8        29.81R
SAVANNA*       MOCLDY    58  43  56 NW9       29.81S
$$

ILZ003-004-008-010-011-017-018-270600-
NORTH CENTRAL ILLINOIS

CITY           SKY/WX    TMP DP  RH WIND       PRES   REMARKS
ROCKFORD       MOCLDY    53  29  39 CALM      29.79S
FREEPORT*      CLOUDY    55  39  55 W7        29.81S
ROCHELLE*      CLOUDY    49  32  52 SW7       29.80R
DE KALB*       MOCLDY    51  33  52 SW8       29.79F
PERU*          FAIR      56  34  42 SW8       29.80F
$$

ILZ005-006-012>014-019>023-270600-
NORTHEAST ILLINOIS

CITY           SKY/WX    TMP DP  RH WIND       PRES   REMARKS
CHICAGO-OHARE  MOCLDY    56  31  38 S6        29.78F
CHICAGO-MIDWAY MOCLDY    56  31  38 S9        29.80F
AURORA         MOCLDY    55  33  43 S9        29.78F
LANSING*       FAIR      46  30  54 CALM      29.82F
JOLIET*        FAIR      53  37  54 S3        29.80F
WAUKEGAN       FAIR      53  31  42 S8        29.77F
DUPAGE AIRPORT MOCLDY    54  36  50 S9        29.78F
KANKAKEE*      FAIR      50  30  46 S5        29.83F
WHEELING       MOCLDY    53  33  46 S5        29.80F
MORRIS*        FAIR      50  32  50 SW5       29.79F
ROMEOVILLE*    FAIR      50  35  55 S9        29.80F
NORTHERLY ISL    N/A     56  25  30 S5          N/A
$$

LMZ740>746-270600-
SOUTHERN LAKE MICHIGAN

STATION/POSITION SKY/WX   TEMP    WIND        PRES    VSBY  WAVE
                          AIR SEA DIR/SP/G                  HT/PER
                          (F)     (DEG/KT/KT) (MB)    (MI)  (FT/S)
HARRISON CRIB              57     190/ 13/ 14   N/A
BURNHAM HARBOR             56     190/  4/  8   N/A
CALUMET HARBOR             54     180/  5/  8 1008.9F
BURNS HARBOR               54     170/  7/ 11 1010.2F
MICHIGAN CITY              53     130/ 10/ 11   N/A
ST. JOSEPH                 49 44  200/  4/  6 1009.8          1
$$

ILZ025>027-034>036-040-047-049-050-058-095>099-270600-
WEST-CENTRAL ILLINOIS

CITY           SKY/WX    TMP DP  RH WIND       PRES   REMARKS
QUINCY         PTCLDY    56  35  45 W16G23    29.88S
GALESBURG*     FAIR      55  35  48 W9        29.86R
MACOMB*        CLEAR     52  33  48 W10       29.88R
JACKSONVILLE*  CLEAR     53  32  44 SW7       29.87S
PITTSFIELD*    MOCLDY    57  37  47 W5        29.89S
$$

ILZ028>032-037-038-041>044-048-051>054-059>061-270600-
CENTRAL ILLINOIS

CITY           SKY/WX    TMP DP  RH WIND       PRES   REMARKS
PONTIAC        FAIR      44  33  66 CALM      29.83F
BLOOMINGTON    FAIR      49  35  58 SW7       29.85F
DECATUR        FAIR      51  35  54 SW6       29.85F
PEORIA         FAIR      55  34  45 SW5       29.83F
LACON*         FAIR      49  37  63 SW5       29.80F
LINCOLN*       FAIR      50  38  61 CALM      29.85S
SPRINGFIELD    FAIR      51  38  60 SW5       29.86F
TAYLORVILLE    FAIR      51  35  54 SW3       29.87S
$$

ILZ033-039-045-046-055>057-062-063-270600-
EAST-CENTRAL ILLINOIS

CITY           SKY/WX    TMP DP  RH WIND       PRES   REMARKS
CHAMPAIGN      FAIR      47  36  65 SW5       29.85F
DANVILLE*      FAIR      46  36  69 CALM      29.82F
RANTOUL*       FAIR      49  39  67 CALM      29.84F
MATTOON        FAIR      50  42  74 CALM      29.85F
PARIS*         FAIR      44  36  74 SW7       29.86F
$$

ILZ079-100>102-270600-
SOUTHWEST ILLINOIS

CITY           SKY/WX    TMP DP  RH WIND       PRES   REMARKS
ALTON          CLEAR     47  35  64 W5        29.89S
BELLEVILLE     CLEAR     52  43  72 SW3       29.88S
CAHOKIA*       CLEAR     50  45  83 SW5       29.89S
SPARTA*        PTCLDY    57  46  66 SW3       29.91S
$$

ILZ064>066-069>071-074>076-080>082-084>086-088>090-092>094-270600-
SOUTH-CENTRAL ILLINOIS

CITY           SKY/WX    TMP DP  RH WIND       PRES   REMARKS
CARBONDALE     FAIR      50  47  89 SW3       29.90S
CAIRO*         FAIR      53  48  83 CALM      29.91S
EFFINGHAM*     FAIR      48  42  79 CALM      29.89S
MARION         FAIR      50  45  81 S3        29.91S
MT. VERNON     FAIR      46  43  89 CALM      29.89F
CENTRALIA*     PTCLDY    49  45  85 CALM      29.88F
SALEM*         FAIR      54  40  58 CALM      29.88F
METROPOLIS*    FAIR      50  46  87 CALM      29.91S
$$

ILZ067-068-072-073-078-083-087-091-270600-
SOUTHEAST ILLINOIS

CITY           SKY/WX    TMP DP  RH WIND       PRES   REMARKS
LAWRENCEVILLE  FAIR      50  42  74 MISG      29.87F
FLORA*         FAIR      51  45  78 CALM      29.89S
FAIRFIELD*     FAIR      49  44  82 CALM      29.88S
HARRISBURG*    FAIR      50  46  84 CALM      29.90S
ROBINSON*      FAIR      44  40  88 CALM      29.87F
CARMI*         FAIR      47  44  89 SW6       29.88S
$$

ABBREVIATIONS USED IN REMARKS
   TC - TEMPERATURE IN CELSIUS
  WCI - WIND CHILL INDEX
   HX - HEAT INDEX
  VSB - VISIBILITY
$$





USA.gov is the U.S. government's official web portal to all federal, state and local government web resources and services.